SCP
0 0 0 0 0 0 0 0 0 0 0 0 0 0 0 0 0 0 0 0 0 1 1 1 0 0 1 1 0 0 0 0 0 0 0 0 0 0 0 0 0 0 0
0 0 0 0 0 0 0 0 0 0 0 0 0 0 0 0 0 0 0 0 0 1 1 0 0 0 0 0 0 0 0 0 0 0 0 0 0 0 0 0 0 0 0
0 0 0 0 0 0 0 0 0 0 0 0 0 0 0 0 0 0 0 0 0 1 1 0 0 0 0 0 0 0 0 0 0 0 0 0 0 0 0 0 0 0 0
0 0 0 0 0 0 0 0 0 0 0 0 0 0 0 0 0 0 0 0 1 1 1 0 0 0 0 0 0 -0 0 0 0 0 0 0 0 0 0 0 0 0 0
0 0 0 0 0 0 0 0 0 0 0 0 0 0 0 0 0 0 0 0 0 1 1 0 0 0 0 0 -0 0 0 0 0 0 0 0 0 0 0 0 0 0 0
0 0 0 0 0 0 0 0 0 0 0 -0 0 0 0 0 0 0 0 0 0 0 0 0 0 0 0 0 0 0 0 0 0 0 0 0 0 0 0 0 0 0 0
0 0 0 0 0 0 0 0 0 -0 0 0 0 0 0 0 0 0 0 0 0 0 0 0 0 0 0 0 0 0 0 0 0 0 0 0 0 0 0 0 0 0 0
0 0 0 0 0 0 -0 -0 -0 0 0 0 0 0 0 0 0 0 0 0 0 0 0 0 0 0 0 0 0 0 -0 0 0 0 -0 0 0 0 -0 0 0 0 0
0 0 0 0 0 0 -0 -0 0 0 0 0 0 0 0 0 0 0 0 0 0 0 0 0 0 0 0 0 0 0 0 0 0 0 -0 -0 -0 0 0 0 0 0 0
0 0 0 0 0 0 -0 -0 0 0 0 0 0 0 0 0 0 0 0 0 0 0 0 0 0 0 0 0 0 0 0 0 0 0 0 -0 -0 -0 0 0 0 0 0
0 0 0 0 0 0 0 0 0 0 0 0 0 0 0 0 0 0 0 0 0 0 0 0 0 0 0 0 0 0 0 0 0 0 0 0 -0 0 0 0 0 0 0
-0 -0 0 -0 0 0 0 0 0 0 0 0 0 0 0 0 0 0 0 0 0 0 0 0 0 0 0 0 0 0 0 0 0 0 -0 0 0 -0 0 0 0 0 0
-0 -0 0 -0 0 0 0 0 0 -0 0 0 0 0 0 0 0 0 0 0 0 0 0 0 0 0 0 0 0 0 0 0 0 0 0 0 0 0 0 0 0 0 0
-0 0 0 0 0 0 -0 0 0 0 -0 0 0 0 0 0 0 0 0 0 0 0 0 0 0 0 0 0 0 0 0 0 -0 0 0 0 0 0 0 0 0 0 0
-0 0 -0 0 0 0 0 0 0 0 -0 0 0 0 0 0 0 0 0 0 0 0 0 0 0 0 0 0 0 0 0 0 0 0 0 -0 0 0 0 0 0 0 0
-0 0 -0 0 0 0 0 0 0 0 0 0 0 0 0 0 0 0 0 0 0 0 0 0 0 0 0 0 0 0 0 0 0 0 0 -0 0 0 0 0 0 0 0
0 0 -0 -0 0 0 0 0 0 0 0 0 0 0 0 0 0 0 0 0 0 0 0 0 0 0 0 0 0 0 0 0 0 0 -0 0 0 0 0 0 0 0 0
0 0 -0 -0 -0 0 0 0 0 0 0 0 0 0 0 0 0 0 0 0 0 0 0 0 0 0 0 0 0 0 0 0 0 0 0 0 0 0 0 0 0 0 0
-0 0 0 0 0 0 0 0 0 0 0 0 0 0 0 0 0 0 0 0 0 0 0 0 0 0 0 0 0 0 0 0 0 -0 0 0 0 0 0 0 0 0 0
-0 -0 -0 0 0 0 0 0 0 0 0 0 0 0 0 0 0 0 0 0 0 0 0 0 0 0 0 0 0 0 0 0 0 0 0 0 0 0 0 0 0 0 0
-0 -0 -0 0 0 0 0 0 0 0 0 0 0 0 0 0 0 0 0 0 0 0 0 0 0 0 0 0 0 0 0 0 0 0 0 0 0 0 0 0 0 0 0
0 0 -0 -0 0 0 -0 -0 0 0 0 0 0 0 0 -0 0 0 -0 -0 0 0 0 0 0 0 0 0 0 0 0 0 0 0 0 0 0 0 0 0 0 0 0
0 0 0 0 0 0 0 0 0 0 0 0 0 0 0 0 0 0 -0 0 0 0 0 0 -0 -0 -0 0 0 0 -0 0 0 0 0 0 0 0 0 0 0 0 0
0 0 0 0 0 0 0 0 0 0 0 0 0 0 0 0 0 0 0 0 0 0 0 0 0 0 0 -0 0 -0 -0 -0 0 0 0 0 0 0 0 0 0 0 0
0 0 0 0 0 -0 0 0 0 0 0 0 -0 -0 0 0 0 0 0 0 0 0 0 0 0 0 0 -0 0 -0 -0 -0 0 0 0 0 0 0 0 0 0 0 0
0 -0 0 0 0 0 -0 -0 -0 0 0 -0 0 0 0 0 0 0 0 0 0 0 0 0 0 0 -0 -0 0 0 -0 0 0 0 0 0 0 0 0 0 0 0 0
Wind_Speed_500mb
30 30 28 27 24 24 26 26 28 29 33 34 39 42 44 38 37 40 35 37 39 38 41 39 43 45 53 71 54 33 57 59 50 50 43 42 39 35 29 26 23 18 13
31 35 32 31 31 27 27 27 26 28 28 32 35 38 38 36 37 37 35 38 39 36 38 40 44 47 54 33 48 42 57 57 53 51 49 46 36 32 29 24 20 15 10
33 33 35 33 30 28 27 26 23 27 29 32 32 33 35 39 36 34 35 37 38 36 36 41 47 49 51 37 32 46 61 62 64 56 49 42 37 33 26 22 17 14 16
30 32 31 28 25 26 25 26 24 28 30 32 34 32 33 33 31 32 35 35 36 34 38 44 44 51 50 52 45 65 59 56 67 58 46 40 36 30 24 19 16 20 22
26 29 28 26 28 27 24 26 27 30 29 34 33 29 30 31 29 30 34 32 35 35 37 47 42 44 47 52 56 54 58 62 62 53 45 40 35 26 21 17 21 23 22
25 25 23 25 26 26 24 25 26 29 26 33 29 27 30 26 26 25 26 28 31 33 31 42 43 43 46 47 48 53 60 68 58 52 45 39 33 26 18 20 25 21 19
25 19 17 19 20 21 16 16 30 27 29 35 28 28 24 20 23 25 26 26 31 26 27 39 41 44 47 46 51 54 70 68 59 52 46 33 27 20 21 26 23 22 19
10 9 15 15 15 16 17 27 28 28 29 32 31 28 17 19 25 26 24 26 30 26 26 29 40 40 47 54 56 53 67 68 60 50 42 38 29 27 26 19 17 17 14
3 7 10 11 13 17 19 27 27 24 31 35 30 18 12 10 20 21 25 23 26 30 29 30 32 32 47 53 57 66 63 65 56 52 48 38 29 24 12 19 19 17 12
6 9 8 6 12 17 21 27 25 24 27 31 30 32 17 21 18 14 20 21 19 27 26 25 26 30 44 49 50 76 75 68 62 55 43 35 29 18 23 21 18 14 7
8 10 11 10 12 15 22 25 25 25 27 30 28 33 19 15 24 34 27 27 19 23 27 21 23 43 39 38 76 87 76 70 60 51 40 29 30 24 22 19 17 10 6
12 13 11 12 11 15 24 27 25 19 18 25 24 35 14 25 32 36 33 33 31 29 23 22 20 25 46 78 75 72 69 60 52 46 35 33 29 20 18 18 13 7 5
7 12 13 13 11 16 24 29 25 17 16 19 18 20 15 18 30 30 38 42 38 35 19 15 14 42 67 69 76 72 62 60 57 39 32 27 20 14 16 15 9 5 3
6 10 17 15 16 19 23 28 26 21 20 19 15 8 8 14 32 19 24 34 41 30 21 36 35 43 56 81 73 68 60 53 45 33 27 26 15 15 14 12 7 2 2
5 12 16 18 19 23 24 24 23 25 23 18 11 5 5 11 24 17 21 37 38 33 32 30 34 70 81 72 73 67 60 48 38 28 20 17 16 15 13 9 4 2 4
9 13 20 20 21 22 25 26 26 26 21 19 14 10 6 18 18 24 15 24 35 24 24 47 40 68 67 63 67 59 51 39 30 23 23 18 16 15 11 5 4 3 6
12 14 20 22 22 22 24 24 25 23 22 20 18 13 15 13 23 27 13 22 20 29 32 45 41 54 53 66 56 52 44 36 29 22 21 18 16 13 9 5 2 6 9
16 16 19 20 21 22 22 21 20 20 22 23 18 18 18 19 27 22 16 19 21 22 32 49 39 53 56 66 65 48 41 34 22 19 18 16 15 11 6 3 2 7 10
16 17 18 20 22 23 22 18 15 19 21 17 14 15 23 21 23 24 19 19 20 21 30 41 51 56 57 66 57 48 36 26 14 20 18 17 13 10 6 6 6 11 18
16 17 19 21 22 22 21 18 19 21 17 15 14 15 18 19 24 25 24 20 18 26 34 35 53 59 55 66 55 42 26 15 12 19 17 15 10 6 4 6 12 17 22
17 18 20 25 25 20 21 19 22 25 21 15 18 19 18 18 20 20 19 25 28 27 56 55 70 63 58 58 44 31 24 16 20 20 14 11 6 2 5 9 14 16 19
17 21 20 18 23 22 18 21 29 24 17 17 26 30 28 24 27 30 24 22 38 41 45 48 50 49 63 51 38 31 27 25 21 18 19 11 4 2 5 9 14 18 22
18 19 11 14 22 22 22 23 28 18 15 24 36 41 42 37 36 38 37 55 42 37 34 37 40 39 43 38 31 30 30 25 24 20 9 10 5 5 5 7 13 18 21
20 18 16 15 18 35 26 32 31 23 21 30 26 38 45 49 43 44 50 44 35 27 29 30 30 34 32 33 28 28 27 26 20 13 9 8 9 4 2 6 11 19 22
21 19 20 22 20 39 32 33 37 34 33 36 44 42 42 43 46 35 42 27 33 41 46 44 42 37 35 33 30 25 20 16 13 12 11 10 11 8 7 3 10 18 19
19 22 23 22 27 30 37 34 43 38 36 42 42 34 35 41 36 29 33 34 33 35 38 40 34 31 29 25 21 19 13 10 10 10 9 9 5 6 9 9 7 11 21
Wind_Direction_500mb
269 262 260 259 269 272 263 264 264 255 244 242 229 227 226 233 227 222 232 223 219 219 218 216 217 214 208 203 204 238 213 200 189 175 179 176 168 165 161 159 153 156 150
267 261 260 261 263 266 262 262 268 246 239 237 227 221 222 230 223 220 226 215 215 215 214 211 210 197 194 203 209 224 194 190 183 175 172 174 168 164 164 159 154 148 145
270 260 258 259 253 258 263 264 263 236 236 229 221 215 224 216 218 220 221 213 213 209 205 199 192 196 191 195 197 208 189 184 180 172 168 173 164 162 158 158 147 146 138
273 262 257 250 247 252 263 262 252 230 230 221 207 212 214 210 209 222 209 214 211 208 202 193 195 193 197 195 196 189 192 193 182 165 170 170 160 159 157 151 145 138 130
283 266 254 244 241 251 261 261 248 222 223 205 199 209 206 200 211 206 201 213 209 212 204 201 200 196 191 190 193 196 201 181 167 165 169 163 154 154 154 148 138 136 137
290 265 247 238 237 246 258 261 220 203 205 195 194 202 198 206 215 201 206 209 207 212 200 202 203 202 196 198 197 195 189 172 165 163 167 156 149 153 148 141 136 139 145
296 254 224 223 235 243 254 215 181 190 195 195 199 195 199 214 197 202 208 212 207 207 202 198 204 196 195 197 196 193 181 161 161 165 158 141 143 145 142 133 143 151 126
285 203 204 222 231 230 215 186 186 187 188 185 190 184 182 190 198 198 209 216 206 198 193 200 195 197 196 194 190 189 169 160 163 157 146 150 144 149 125 132 139 134 127
159 179 208 234 219 206 195 185 183 186 178 179 188 181 153 182 185 207 212 204 205 205 198 202 207 206 199 203 187 178 162 159 157 148 153 150 135 114 124 153 153 147 140
225 228 200 204 193 189 186 187 182 182 185 188 189 202 192 184 167 161 197 203 218 206 206 203 208 204 198 205 183 172 164 156 151 152 146 131 126 141 171 158 153 148 121
234 210 202 192 175 183 184 182 184 191 201 207 212 201 205 228 197 165 159 164 190 217 192 202 235 211 199 222 181 161 157 152 151 148 136 142 146 162 158 155 159 156 110
216 207 209 184 184 181 181 181 178 193 208 214 220 202 201 194 192 170 164 176 176 162 171 177 195 228 213 170 150 149 150 149 148 146 145 163 145 146 161 165 163 123 93
185 193 190 176 177 177 180 184 185 189 181 183 190 216 230 204 169 184 174 158 141 135 146 181 192 176 165 170 157 150 150 151 155 150 162 139 127 174 170 165 149 114 123
170 178 174 163 164 164 169 176 184 192 181 183 203 196 193 179 192 211 206 181 144 138 150 164 197 175 175 156 149 150 152 153 150 153 161 117 151 173 161 153 155 123 45
114 156 158 156 154 156 156 164 176 180 182 184 179 163 167 175 176 207 234 182 160 130 152 159 148 169 153 149 153 153 147 142 146 150 132 139 160 154 147 160 161 90 21
116 144 163 159 156 151 156 164 167 171 178 175 173 173 134 162 200 196 170 202 206 193 150 169 166 160 159 146 156 149 143 144 147 150 141 152 150 144 152 129 85 52 19
115 126 157 169 170 158 156 165 171 169 178 182 171 163 154 177 176 186 179 194 194 189 172 166 171 172 161 170 156 147 146 153 159 149 151 146 139 132 120 128 74 16 0
114 126 130 154 167 166 166 168 176 173 172 168 167 160 153 174 188 204 201 191 196 186 181 172 179 173 166 172 160 149 150 153 157 144 146 134 130 133 132 102 283 270 287
110 122 132 140 156 161 167 170 168 158 149 158 170 174 167 193 178 183 183 179 181 178 173 151 163 167 167 160 154 153 152 147 113 117 127 132 129 132 160 226 281 300 309
117 120 121 131 139 150 155 151 148 154 160 147 146 148 167 175 169 171 166 165 176 171 179 165 160 163 158 161 163 164 155 143 134 129 129 131 139 172 238 313 317 310 308
112 120 121 125 131 138 148 149 150 146 151 166 179 165 156 158 155 155 171 177 177 170 177 148 165 174 177 159 171 164 165 159 142 127 133 140 145 103 340 322 319 326 326
128 118 123 134 139 145 145 146 142 134 129 119 134 139 139 143 147 146 143 180 147 135 134 151 149 146 162 171 175 176 174 159 135 144 156 137 106 356 345 337 338 328 329
119 133 113 138 170 157 159 152 163 146 113 121 135 144 144 147 158 164 134 129 132 129 121 131 142 155 165 166 166 168 162 157 149 149 173 129 115 348 326 332 340 350 350
114 132 101 107 146 167 147 159 150 142 129 129 136 139 137 131 126 127 135 126 124 126 129 132 137 136 141 145 144 145 157 163 159 161 170 169 180 185 234 336 2 351 348
108 108 107 84 116 151 155 161 156 147 139 132 135 131 130 136 130 133 129 128 129 130 129 129 131 133 140 145 147 152 165 175 175 169 164 181 169 174 209 292 342 339 360
121 108 107 117 104 133 159 153 161 157 155 144 151 144 133 127 132 134 135 134 137 137 139 139 141 143 146 152 155 160 169 169 178 163 173 186 167 172 204 254 312 353 1
Wind_Speed_850mb
30 30 28 27 24 24 26 26 28 29 33 34 39 42 44 38 37 40 35 37 39 38 41 39 43 45 53 71 54 33 57 59 50 50 43 42 39 35 29 26 23 18 13
31 35 32 31 31 27 27 27 26 28 28 32 35 38 38 36 37 37 35 38 39 36 38 40 44 47 54 33 48 42 57 57 53 51 49 46 36 32 29 24 20 15 10
33 33 35 33 30 28 27 26 23 27 29 32 32 33 35 39 36 34 35 37 38 36 36 41 47 49 51 37 32 46 61 62 64 56 49 42 37 33 26 22 17 14 16
30 32 31 28 25 26 25 26 24 28 30 32 34 32 33 33 31 32 35 35 36 34 38 44 44 51 50 52 45 65 59 56 67 58 46 40 36 30 24 19 16 20 22
26 29 28 26 28 27 24 26 27 30 29 34 33 29 30 31 29 30 34 32 35 35 37 47 42 44 47 52 56 54 58 62 62 53 45 40 35 26 21 17 21 23 22
25 25 23 25 26 26 24 25 26 29 26 33 29 27 30 26 26 25 26 28 31 33 31 42 43 43 46 47 48 53 60 68 58 52 45 39 33 26 18 20 25 21 19
25 19 17 19 20 21 16 16 30 27 29 35 28 28 24 20 23 25 26 26 31 26 27 39 41 44 47 46 51 54 70 68 59 52 46 33 27 20 21 26 23 22 19
10 9 15 15 15 16 17 27 28 28 29 32 31 28 17 19 25 26 24 26 30 26 26 29 40 40 47 54 56 53 67 68 60 50 42 38 29 27 26 19 17 17 14
3 7 10 11 13 17 19 27 27 24 31 35 30 18 12 10 20 21 25 23 26 30 29 30 32 32 47 53 57 66 63 65 56 52 48 38 29 24 12 19 19 17 12
6 9 8 6 12 17 21 27 25 24 27 31 30 32 17 21 18 14 20 21 19 27 26 25 26 30 44 49 50 76 75 68 62 55 43 35 29 18 23 21 18 14 7
8 10 11 10 12 15 22 25 25 25 27 30 28 33 19 15 24 34 27 27 19 23 27 21 23 43 39 38 76 87 76 70 60 51 40 29 30 24 22 19 17 10 6
12 13 11 12 11 15 24 27 25 19 18 25 24 35 14 25 32 36 33 33 31 29 23 22 20 25 46 78 75 72 69 60 52 46 35 33 29 20 18 18 13 7 5
7 12 13 13 11 16 24 29 25 17 16 19 18 20 15 18 30 30 38 42 38 35 19 15 14 42 67 69 76 72 62 60 57 39 32 27 20 14 16 15 9 5 3
6 10 17 15 16 19 23 28 26 21 20 19 15 8 8 14 32 19 24 34 41 30 21 36 35 43 56 81 73 68 60 53 45 33 27 26 15 15 14 12 7 2 2
5 12 16 18 19 23 24 24 23 25 23 18 11 5 5 11 24 17 21 37 38 33 32 30 34 70 81 72 73 67 60 48 38 28 20 17 16 15 13 9 4 2 4
9 13 20 20 21 22 25 26 26 26 21 19 14 10 6 18 18 24 15 24 35 24 24 47 40 68 67 63 67 59 51 39 30 23 23 18 16 15 11 5 4 3 6
12 14 20 22 22 22 24 24 25 23 22 20 18 13 15 13 23 27 13 22 20 29 32 45 41 54 53 66 56 52 44 36 29 22 21 18 16 13 9 5 2 6 9
16 16 19 20 21 22 22 21 20 20 22 23 18 18 18 19 27 22 16 19 21 22 32 49 39 53 56 66 65 48 41 34 22 19 18 16 15 11 6 3 2 7 10
16 17 18 20 22 23 22 18 15 19 21 17 14 15 23 21 23 24 19 19 20 21 30 41 51 56 57 66 57 48 36 26 14 20 18 17 13 10 6 6 6 11 18
16 17 19 21 22 22 21 18 19 21 17 15 14 15 18 19 24 25 24 20 18 26 34 35 53 59 55 66 55 42 26 15 12 19 17 15 10 6 4 6 12 17 22
17 18 20 25 25 20 21 19 22 25 21 15 18 19 18 18 20 20 19 25 28 27 56 55 70 63 58 58 44 31 24 16 20 20 14 11 6 2 5 9 14 16 19
17 21 20 18 23 22 18 21 29 24 17 17 26 30 28 24 27 30 24 22 38 41 45 48 50 49 63 51 38 31 27 25 21 18 19 11 4 2 5 9 14 18 22
18 19 11 14 22 22 22 23 28 18 15 24 36 41 42 37 36 38 37 55 42 37 34 37 40 39 43 38 31 30 30 25 24 20 9 10 5 5 5 7 13 18 21
20 18 16 15 18 35 26 32 31 23 21 30 26 38 45 49 43 44 50 44 35 27 29 30 30 34 32 33 28 28 27 26 20 13 9 8 9 4 2 6 11 19 22
21 19 20 22 20 39 32 33 37 34 33 36 44 42 42 43 46 35 42 27 33 41 46 44 42 37 35 33 30 25 20 16 13 12 11 10 11 8 7 3 10 18 19
19 22 23 22 27 30 37 34 43 38 36 42 42 34 35 41 36 29 33 34 33 35 38 40 34 31 29 25 21 19 13 10 10 10 9 9 5 6 9 9 7 11 21
Wind_Direction_850mb
269 262 260 259 269 272 263 264 264 255 244 242 229 227 226 233 227 222 232 223 219 219 218 216 217 214 208 203 204 238 213 200 189 175 179 176 168 165 161 159 153 156 150
267 261 260 261 263 266 262 262 268 246 239 237 227 221 222 230 223 220 226 215 215 215 214 211 210 197 194 203 209 224 194 190 183 175 172 174 168 164 164 159 154 148 145
270 260 258 259 253 258 263 264 263 236 236 229 221 215 224 216 218 220 221 213 213 209 205 199 192 196 191 195 197 208 189 184 180 172 168 173 164 162 158 158 147 146 138
273 262 257 250 247 252 263 262 252 230 230 221 207 212 214 210 209 222 209 214 211 208 202 193 195 193 197 195 196 189 192 193 182 165 170 170 160 159 157 151 145 138 130
283 266 254 244 241 251 261 261 248 222 223 205 199 209 206 200 211 206 201 213 209 212 204 201 200 196 191 190 193 196 201 181 167 165 169 163 154 154 154 148 138 136 137
290 265 247 238 237 246 258 261 220 203 205 195 194 202 198 206 215 201 206 209 207 212 200 202 203 202 196 198 197 195 189 172 165 163 167 156 149 153 148 141 136 139 145
296 254 224 223 235 243 254 215 181 190 195 195 199 195 199 214 197 202 208 212 207 207 202 198 204 196 195 197 196 193 181 161 161 165 158 141 143 145 142 133 143 151 126
285 203 204 222 231 230 215 186 186 187 188 185 190 184 182 190 198 198 209 216 206 198 193 200 195 197 196 194 190 189 169 160 163 157 146 150 144 149 125 132 139 134 127
159 179 208 234 219 206 195 185 183 186 178 179 188 181 153 182 185 207 212 204 205 205 198 202 207 206 199 203 187 178 162 159 157 148 153 150 135 114 124 153 153 147 140
225 228 200 204 193 189 186 187 182 182 185 188 189 202 192 184 167 161 197 203 218 206 206 203 208 204 198 205 183 172 164 156 151 152 146 131 126 141 171 158 153 148 121
234 210 202 192 175 183 184 182 184 191 201 207 212 201 205 228 197 165 159 164 190 217 192 202 235 211 199 222 181 161 157 152 151 148 136 142 146 162 158 155 159 156 110
216 207 209 184 184 181 181 181 178 193 208 214 220 202 201 194 192 170 164 176 176 162 171 177 195 228 213 170 150 149 150 149 148 146 145 163 145 146 161 165 163 123 93
185 193 190 176 177 177 180 184 185 189 181 183 190 216 230 204 169 184 174 158 141 135 146 181 192 176 165 170 157 150 150 151 155 150 162 139 127 174 170 165 149 114 123
170 178 174 163 164 164 169 176 184 192 181 183 203 196 193 179 192 211 206 181 144 138 150 164 197 175 175 156 149 150 152 153 150 153 161 117 151 173 161 153 155 123 45
114 156 158 156 154 156 156 164 176 180 182 184 179 163 167 175 176 207 234 182 160 130 152 159 148 169 153 149 153 153 147 142 146 150 132 139 160 154 147 160 161 90 21
116 144 163 159 156 151 156 164 167 171 178 175 173 173 134 162 200 196 170 202 206 193 150 169 166 160 159 146 156 149 143 144 147 150 141 152 150 144 152 129 85 52 19
115 126 157 169 170 158 156 165 171 169 178 182 171 163 154 177 176 186 179 194 194 189 172 166 171 172 161 170 156 147 146 153 159 149 151 146 139 132 120 128 74 16 0
114 126 130 154 167 166 166 168 176 173 172 168 167 160 153 174 188 204 201 191 196 186 181 172 179 173 166 172 160 149 150 153 157 144 146 134 130 133 132 102 283 270 287
110 122 132 140 156 161 167 170 168 158 149 158 170 174 167 193 178 183 183 179 181 178 173 151 163 167 167 160 154 153 152 147 113 117 127 132 129 132 160 226 281 300 309
117 120 121 131 139 150 155 151 148 154 160 147 146 148 167 175 169 171 166 165 176 171 179 165 160 163 158 161 163 164 155 143 134 129 129 131 139 172 238 313 317 310 308
112 120 121 125 131 138 148 149 150 146 151 166 179 165 156 158 155 155 171 177 177 170 177 148 165 174 177 159 171 164 165 159 142 127 133 140 145 103 340 322 319 326 326
128 118 123 134 139 145 145 146 142 134 129 119 134 139 139 143 147 146 143 180 147 135 134 151 149 146 162 171 175 176 174 159 135 144 156 137 106 356 345 337 338 328 329
119 133 113 138 170 157 159 152 163 146 113 121 135 144 144 147 158 164 134 129 132 129 121 131 142 155 165 166 166 168 162 157 149 149 173 129 115 348 326 332 340 350 350
114 132 101 107 146 167 147 159 150 142 129 129 136 139 137 131 126 127 135 126 124 126 129 132 137 136 141 145 144 145 157 163 159 161 170 169 180 185 234 336 2 351 348
108 108 107 84 116 151 155 161 156 147 139 132 135 131 130 136 130 133 129 128 129 130 129 129 131 133 140 145 147 152 165 175 175 169 164 181 169 174 209 292 342 339 360
121 108 107 117 104 133 159 153 161 157 155 144 151 144 133 127 132 134 135 134 137 137 139 139 141 143 146 152 155 160 169 169 178 163 173 186 167 172 204 254 312 353 1